Header for Extended Forecast Station List Page

Search by: ID | Name | Date | Parm | Value | Avg | % Avg
Sort by: ID | Name | Date | Parm | Value | Avg | % Avg

Enter search or view all records.

Click on id for station plot
#IDNameDateParmValueAvg% Avg
0HWRI1BIG LOST-AT HOWELL RANCH NEAR CHILLY01-26-2015DISCHARGE (KAF)244850
1MACI1BIG LOST-MACKAY RESERVOIR NEAR MACKAY01-26-2015INFLOW (KAF)264065
2HALI1BIG WOOD-AT HAILEY01-26-2015DISCHARGE (KAF)101100102
3MAGI1BIG WOOD-MAGIC DAM01-26-2015INFLOW (KAF)13715588
4BITM8BITTERROOT-NEAR MISSOULA01-26-2015DISCHARGE (KAF)566538105
5BONM8BLACKFOOT-NEAR BONNER01-26-2015DISCHARGE (KAF)428392109
6BIGI1BOISE-AT GLENWOOD BRIDGE01-26-2015DISCHARGE (KAF)354254139
7LUCI1BOISE-LUCKY PEAK DAM01-26-2015INFLOW (KAF)803MM
8PARI1BOISE-NEAR PARMA01-26-2015DISCHARGE (KAF)429361119
9HOTI1BRUNEAU-NEAR HOT SPRINGS01-26-2015DISCHARGE (KAF)125122102
10BULO3BULLY CREEK-BULLY CREEK DAM01-26-2015INFLOW (KAF)269290
11BUDW1BUMPING-BUMPING LAKE DAM01-26-2015INFLOW (KAF)7065107
12CHDW1CHELAN-LAKE CHELAN DAM01-26-2015INFLOW (KAF)566429132
13ABOM8CLARK FORK-ABOVE MISSOULA01-26-2015DISCHARGE (KAF)802750107
14DLGM8CLARK FORK-AT DEER LODGE01-26-2015DISCHARGE (KAF)657093
15SRGM8CLARK FORK-AT ST REGIS01-26-2015DISCHARGE (KAF)18411821101
16BELM8CLARK FORK-BELOW MISSOULA01-26-2015DISCHARGE (KAF)13681301105
17CABI1CLARK FORK-CABINET GORGE DAM01-26-2015INFLOW (KAF)5656574498
18NOXM8CLARK FORK-NOXON RAPIDS DAM01-26-2015INFLOW (KAF)5077548493
19DRMM8CLARK FORK-NR DRUMMOND01-26-2015DISCHARGE (KAF)191MM
20CLUW1CLE ELUM-CLE ELUM LAKE01-26-2015INFLOW (KAF)231226102
21ORFI1CLEARWATER-AT OROFINO01-26-2015DISCHARGE (KAF)31882847112
22SPDI1CLEARWATER-AT SPALDING01-26-2015DISCHARGE (KAF)48744781102
23COEI1COEUR D ALENE-COEUR D ALENE LAKE01-26-2015INFLOW (KAF)2254250090
24CIBW1COLUMBIA-AT INTL BOUNDARY01-26-2015DISCHARGE (KAF)19202MM
25BONO3COLUMBIA-BONNEVILLE DAM01-26-2015INFLOW (KAF)46110MM
26CHJW1COLUMBIA-CHIEF JOSEPH DAM01-26-2015INFLOW (KAF)2519325302100
27GCDW1COLUMBIA-GRAND COULEE DAM01-26-2015INFLOW (KAF)2286522582101
28JDAO3COLUMBIA-JOHN DAY DAM01-26-2015INFLOW (KAF)444724521198
29MCDW1COLUMBIA-MCNARY DAM01-26-2015INFLOW (KAF)422354276399
30PRWW1COLUMBIA-PRIEST RAPIDS DAM01-26-2015INFLOW (KAF)2811625698109
31RRHW1COLUMBIA-ROCKY REACH DAM01-26-2015INFLOW (KAF)2728326679102
32TDAO3COLUMBIA-THE DALLES DAM01-26-2015INFLOW (KAF)450464642397
33WANW1COLUMBIA-WANAPUM DAM01-26-2015INFLOW (KAF)2812025410111
34WELW1COLUMBIA-WELLS DAM01-26-2015INFLOW (KAF)2643226300101
35DEDI1DEADWOOD-NEAR LOWMAN01-26-2015INFLOW (KAF)6461105
36MODO3DESCHUTES-AT MOODY NR BIGGS01-26-2015DISCHARGE (KAF)1559158998
37ARDW1ENTIAT-NEAR ARDENVOIR01-26-2015DISCHARGE (KAF)10476138
38CHEI1FALL RIVER-NEAR CHESTER01-26-2015DISCHARGE (KAF)247198125
39CFMM8FLATHEAD-AT COLUMBIA FALLS01-26-2015DISCHARGE (KAF)26512170122
40KERM8FLATHEAD-KERR DAM01-26-2015INFLOW (KAF)32092782115
41TRYO3GRANDE RONDE-TROY01-26-2015DISCHARGE (KAF)985101997
42REXI1HENRYS FORK-AT REXBURG01-26-2015DISCHARGE (KAF)638574111
43ANTI1HENRYS FORK-AT ST. ANTHONY01-26-2015DISCHARGE (KAF)526499106
44IPDI1HENRYS FORK-ISLAND PARK DAM01-26-2015INFLOW (KAF)12615184
45HODO3HOOD-NEAR TUCKER BRIDGE01-26-2015DISCHARGE (KAF)286287100
46SERO3JOHN DAY-AT SERVICE CK01-26-2015DISCHARGE (KAF)823825100
47KADW1KACHESS-KACHESS DAM01-26-2015INFLOW (KAF)8881109
48LAUW1KETTLE-AT LAURIER01-26-2015DISCHARGE (KAF)1094918119
49PITW1KLICKITAT-NEAR PITT01-26-2015DISCHARGE (KAF)48050895
50BFEI1KOOTENAI-AT BONNERS FERRY01-26-2015STAGE (FT)MMM
51LEOI1KOOTENAI-AT LEONIA01-26-2015DISCHARGE (KAF)2014244682
52LYDM8KOOTENAI-LIBBY DAM01-26-2015INFLOW (KAF)1782197890
53LWRI1LITTLE WOOD-LITTLE WOOD DAM01-26-2015INFLOW (KAF)345069
54BERO3MALHEUR-AGENCY VALLEY DAM01-26-2015INFLOW (KAF)5050100
55VALO3MALHEUR-NEAR VALE01-26-2015DISCHARGE (KAF)146323
56WRMO3MALHEUR-WARM SPRINGS DAM01-26-2015INFLOW (KAF)8276108
57MYKO3MCKAY CREEK-NEAR PILOT ROCK01-26-2015DISCHARGE (KAF)6741163
58PATW1METHOW-NEAR PATEROS01-26-2015DISCHARGE (KAF)459355129
59WGCM8MF FLATHEAD-NEAR WEST GLACIER01-26-2015DISCHARGE (KAF)658635104
60CLFW1NACHES-NEAR CLIFFDEL01-26-2015DISCHARGE (KAF)261242108
61NACW1NACHES-NEAR NACHES01-26-2015DISCHARGE (KAF)390293133
62DWRI1NF CLEARWATER-DWORSHAK DAM01-26-2015INFLOW (KAF)20111973102
63FCFM8NF FLATHEAD-NEAR COLUMBIA FALLS01-26-2015DISCHARGE (KAF)696664105
64MONO3NF JOHN DAY-AT MONUMENT01-26-2015DISCHARGE (KAF)589562105
65CSDI1NF PAYETTE-CASCADE DAM01-26-2015INFLOW (KAF)27528596
66TONW1OKANOGAN-NEAR TONASKET01-26-2015DISCHARGE (KAF)798675118
67OWYO3OWYHEE-BELOW OWYHEE DAM01-26-2015INFLOW (KAF)352346102
68EMMI1PAYETTE-NEAR EMMETT01-26-2015DISCHARGE (KAF)71184284
69ALFW1PEND OREILLE-ALBENI FALLS DAM01-26-2015INFLOW (KAF)6395702091
70HOPI1PEND OREILLE-PEND OREILLE LAKE NR HOPE01-26-2015LAKE ELEVATION (FT)MMM
71PIHI1PORTNEUF-AT POCATELLO01-26-2015DISCHARGE (KAF)7110071
72PRTI1PRIEST-NEAR PRIEST RIVER01-26-2015DISCHARGE (KAF)48150296
73RCCM8ROCK CREEK-NEAR CLINTON01-26-2015DISCHARGE (KAF)154108143
74WHBI1SALMON-AT WHITEBIRD01-26-2015DISCHARGE (KAF)25402521101
75ARAI1SF BOISE-ANDERSON RANCH DAM01-26-2015INFLOW (KAF)311312100
76HHWM8SF FLATHEAD-HUNGRY HORSE DAM01-26-2015INFLOW (KAF)89591298
77PLDI1SF SNAKE-PALISADES DAM01-26-2015INFLOW (KAF)13941229113
78SIFI1SNAKE-AB EAGLE ROCK NR IDAHO FALLS01-26-2015DISCHARGE (KAF)16121404115
79AFRI1SNAKE-AMERICAN FALLS RESERVOIR01-26-2015INFLOW (KAF)1940197398
80SNAI1SNAKE-AT BLACKFOOT01-26-2015DISCHARGE (KAF)13411253107
81MILI1SNAKE-AT MILNER01-26-2015DISCHARGE (KAF)17874024
82WEII1SNAKE-AT WEISER01-26-2015DISCHARGE (KAF)3650501873
83SWAI1SNAKE-BELOW SWAN FALLS01-26-2015DISCHARGE (KAF)1867271669
84BRNI1SNAKE-BROWNLEE DAM01-26-2015INFLOW (KAF)4112539676
85IHDW1SNAKE-ICE HARBOR DAM01-26-2015INFLOW (KAF)130711483688
86JLKW4SNAKE-JACKSON LAKE AT DAM01-26-2015INFLOW (KAF)307269114
87LGSW1SNAKE-LITTLE GOOSE DAM01-26-2015INFLOW (KAF)128811474087
88LGDW1SNAKE-LOWER GRANITE DAM01-26-2015INFLOW (KAF)128731469188
89LMNW1SNAKE-LOWER MONUMENTAL DAM01-26-2015INFLOW (KAF)130711500687
90ALPW4SNAKE-NEAR ALPINE01-26-2015DISCHARGE (KAF)890745119
91ANAW1SNAKE-NEAR ANATONE01-26-2015DISCHARGE (KAF)7999991681
92BFTI1SNAKE-NEAR BLACKFOOT01-26-2015DISCHARGE (KAF)13221275104
93HEII1SNAKE-NEAR HEISE01-26-2015DISCHARGE (KAF)14181275111
94JKSW4SNAKE-NEAR JACKSON01-26-2015DISCHARGE (KAF)627550114
95SHYI1SNAKE-NEAR SHELLEY01-26-2015DISCHARGE (KAF)15371431107
96LLKW1SPOKANE-AT LONGLAKE01-26-2015INFLOW (KAF)2478295684
97SPOW1SPOKANE-AT SPOKANE01-26-2015DISCHARGE (KAF)2180MM
98SJMI1ST JOE-AT ST MARIES01-26-2015STAGE (FT)MMM
99SATI1ST MARIES-NEAR SANTA01-26-2015DISCHARGE (KAF)150141107
100STRM8ST. REGIS-NEAR ST. REGIS01-26-2015DISCHARGE (KAF)192181106
101TNAW1TEANAWAY-BELOW FORKS01-26-2015DISCHARGE (KAF)128119107
102TEAI1TETON-NEAR ST. ANTHONY01-26-2015DISCHARGE (KAF)200166120
103RILW1TIETON-RIMROCK LAKE NEAR RIMROCK01-26-2015INFLOW (KAF)138118117
104PDTO3UMATILLA-AT PENDLETON01-26-2015DISCHARGE (KAF)222197113
105GIBO3UMATILLA-NEAR GIBBON01-26-2015DISCHARGE (KAF)9383112
106UMAO3UMATILLA-NEAR UMATILLA01-26-2015DISCHARGE (KAF)221175126
107TCHW1WALLA WALLA-NEAR TOUCHET01-26-2015DISCHARGE (KAF)21121797
108WSRI1WEISER-NEAR WEISER01-26-2015DISCHARGE (KAF)414387107
109PESW1WENATCHEE-AT PESHASTIN01-26-2015DISCHARGE (KAF)814717114
110UNDW1WHITE SALMON-NEAR UNDERWOOD01-26-2015DISCHARGE (KAF)31435589
111RIDI1WILLOW CREEK-RIRIE DAM01-26-2015INFLOW (KAF)5937160
112EASW1YAKIMA-AT EASTON01-26-2015DISCHARGE (KAF)135100135
113KIOW1YAKIMA-AT KIONA01-26-2015DISCHARGE (KAF)96997999
114UMTW1YAKIMA-AT UMTANUM01-26-2015DISCHARGE (KAF)603528114
115KEDW1YAKIMA-KEECHELUS LAKE01-26-2015INFLOW (KAF)9885116
116PARW1YAKIMA-NEAR PARKER01-26-2015DISCHARGE (KAF)714627114